Weather in Maskanur

Russia / Mari El Republic     57°07′13″N   48°38′29″E
temp.,
°C
wind,
m/s
gust,
m/s
humid.,
%
clouds,
%
prec.,
mm/h
press.,
hPa
HPBL,
m
2 march, tue
tue200:00−7sw81594100 0.8 1008520
03:00−5sw91595100 3.1 1003614
06:00−2sw91595100 2.2 999583
09:000w61199100 3.4 997514
12:000w61099100 0.9 995602
15:000wnw81298100 3.3 995760
18:00−2w5119490 0.4 996336
21:00−1wnw8139493 1.0 998657
3 march, wed
wed300:00−4wnw599695 0.1 998312
03:00−6w489795 0.3 999194
06:00−6wnw499693 0.2 999311
09:00−5nw6109397 0.4 1000623
12:00−4nw71088100 0.3 1001763
15:00−5nw698799 0.3 1002751
18:00−6wnw51092100 0.1 1003743
21:00−7wnw51093100 0.2 1004633
4 march, thu
thu400:00−11wsw499791 0.0 1002153
03:00−8wsw5109596 0.4 1001344
06:00−7wsw5119594 0.3 1000382
09:00−6wsw6109495 0.3 999564
12:00−3ssw61094100 0.3 995723
15:00−2sw81296100 1.6 992910
18:00−1wsw81494100 0.9 990744
21:00−3wsw71385100 1.8 990757
5 march, fri
fri500:00−5w8158998 0.0 990624
03:00−7wnw7129399 0.1 994494
06:00−11wnw51095100 0.1 998313
09:00−13nw5994100 0.1 1002308
12:00−12wnw579291 0.0 1005423
15:00−11wnw589095 0.0 1007537
18:00−15w349593 0.0 100956
21:00−16w339782 0.0 101225
6 march, sat
sat600:00−18w239868 0.0 101320
03:00−19wsw1210033 0.0 101320
06:00−20ssw1110056 0.0 101320
09:00−15s119329 0.0 101269
12:00−11nne3489100 0.0 1006271
15:00−10nnw359158 0.0 1005285
18:00−14wnw239534 0.0 100620
21:00−13wsw349756 0.0 100665